Flag for Sao Tome and Principe Weather past 2 weeks in São Tomé, Sao Tome and Principe

Now
75 °F

Partly sunny.


Feels Like: 75 °F
Forecast: 74 / 77 °F
Wind: 9 mph from South

Location: S. Tome

Current Time: Aug 31, 2015 at 6:48:18 AM

Latest Report: Aug 31, 2015 at 6:00 AM


Visibility: N/A

Pressure: 29.98 "Hg

Humidity: 89%

Dew point: 72 °F

Location of São ToméLocation

Historic Weather in São Tomé — Graph

°F

São Tomé temperature yesterday

Maximum temperature yesterday: 81 °F (at 10:00 AM)
Minimum temperature yesterday: 75 °F (at 7:00 AM)
Average temperature yesterday: 78 °F

Past Weeks' High & Low Weather Summary

 TemperatureHumidityPressure
High86 °F (Aug 25, 1:00 PM)94% (Aug 20, 3:00 AM)30.07 "Hg (Aug 20, 3:00 AM)
Low73 °F (Aug 16, 10:00 PM)62% (Aug 25, 1:00 PM)29.86 "Hg (Aug 19, 4:00 PM)
Average77 °F82%29.96 "Hg
* Reported Aug 16 6:00 AM — Aug 31 5:00 AM, São Tomé, Weather by CustomWeather, © 2015

Note: Actual official high and low records may vary slightly from our data, if they occured in-between our weather recording intervals... More about our weather records

Advertising

São Tomé weather history for previous 24 hours

 ConditionsComfort  
Time TempWeatherWind HumidityBarometerVisibility
5:00 AM
Mon, Aug 31
75 °FPassing clouds.2 mph89%29.98 "HgN/A
4:00 AM75 °FPassing clouds.9 mph89%30.01 "HgN/A
3:00 AM75 °FPassing clouds.9 mph89%30.01 "HgN/A
2:00 AM75 °FPassing clouds.2 mph89%30.01 "HgN/A
1:00 AM75 °FPassing clouds.5 mph83%30.04 "HgN/A
12:00 AM77 °FPassing clouds.2 mph83%30.04 "HgN/A
10:00 PM
Sun, Aug 30
77 °FPassing clouds.2 mph83%30.01 "HgN/A
9:00 PM75 °FPassing clouds.2 mph83%30.01 "HgN/A
8:00 PM77 °FPassing clouds.2 mph79%29.98 "HgN/A
7:00 PM77 °FPartly cloudy.5 mph83%29.98 "HgN/A
6:00 PM77 °FPartly cloudy.9 mph83%29.98 "HgN/A
5:00 PM79 °FBroken clouds.7 mph79%29.95 "HgN/A
4:00 PM79 °FPartly sunny.12 mph79%29.95 "HgN/A
3:01 PM81 °FPartly sunny.5 mph74%29.98 "HgN/A
1:00 PM79 °FBroken clouds.14 mph79%29.98 "HgN/A
12:00 PM79 °FBroken clouds.16 mph84%30.01 "HgN/A
11:00 AM81 °FBroken clouds.9 mph79%30.04 "HgN/A
10:00 AM81 °FScattered clouds.10 mph79%30.04 "HgN/A
9:00 AM79 °FOvercast.5 mph79%30.07 "HgN/A
8:00 AM77 °FOvercast.2 mph83%30.04 "HgN/A
7:00 AM75 °FPartly sunny.5 mph83%30.01 "HgN/A
Weather by CustomWeather, © 2015

See weather overviewHow to use our weather pages